TimeEST,TemperatureF,Dew PointF,Humidity,Sea Level PressureIn,VisibilityMPH,Wind Direction,Wind SpeedMPH,Gust SpeedMPH,PrecipitationIn,Events,Conditions,WindDirDegrees,DateUTC
12:15 AM,52.3,50.9,95,29.78,7.0,SSW,10.4,17.3,N/A,Rain,Light Rain,210,2012-11-12 05:15:00
12:34 AM,52.2,50.5,94,29.78,10.0,SSW,10.4,-,N/A,Rain,Light Rain,200,2012-11-12 05:34:00
12:55 AM,52.3,50.5,94,29.78,10.0,South,6.9,-,N/A,,Overcast,190,2012-11-12 05:55:00
1:54 AM,52.5,50.4,92,29.77,10.0,SSW,9.2,17.3,N/A,Rain,Rain,200,2012-11-12 06:54:00
2:15 AM,52.3,50.4,93,29.77,10.0,SSW,9.2,18.4,N/A,Rain,Light Rain,200,2012-11-12 07:15:00
2:54 AM,52.2,50.0,92,29.76,10.0,SSW,12.7,16.1,N/A,,Overcast,210,2012-11-12 07:54:00
3:14 AM,48.2,46.4,93,29.78,3.0,WSW,15.0,27.6,N/A,Rain,Rain,250,2012-11-12 08:14:00
3:35 AM,46.2,45.0,95,29.80,3.0,WSW,18.4,26.5,N/A,Rain,Rain,250,2012-11-12 08:35:00
4:14 AM,44.4,42.4,93,29.79,10.0,WSW,13.8,24.2,N/A,,Overcast,250,2012-11-12 09:14:00
4:34 AM,43.7,40.5,88,29.80,10.0,SW,16.1,24.2,N/A,,Light Drizzle,230,2012-11-12 09:34:00
4:55 AM,43.2,40.1,89,29.82,10.0,SW,16.1,26.5,N/A,,Overcast,230,2012-11-12 09:55:00
5:14 AM,42.4,39.2,88,29.82,10.0,WSW,19.6,28.8,N/A,,Light Drizzle,240,2012-11-12 10:14:00
5:34 AM,41.5,38.5,89,29.81,10.0,WSW,13.8,23.0,N/A,Rain,Light Rain,240,2012-11-12 10:34:00
5:55 AM,41.0,37.9,89,29.84,10.0,WSW,15.0,19.6,N/A,,Overcast,240,2012-11-12 10:55:00
6:14 AM,41.0,37.0,86,29.86,10.0,WSW,17.3,26.5,N/A,Rain,Light Rain,240,2012-11-12 11:14:00
6:34 AM,40.1,36.5,87,29.85,10.0,WSW,10.4,20.7,N/A,Rain,Light Rain,240,2012-11-12 11:34:00
7:14 AM,39.6,35.2,85,29.87,10.0,WSW,13.8,23.0,N/A,,Overcast,240,2012-11-12 12:14:00
7:34 AM,38.5,34.5,86,29.88,10.0,WSW,17.3,20.7,N/A,,Overcast,240,2012-11-12 12:34:00
7:53 AM,37.8,33.8,86,29.87,10.0,WSW,10.4,17.3,N/A,,Light Drizzle,240,2012-11-12 12:53:00
8:15 AM,37.4,33.1,84,29.87,10.0,WSW,15.0,19.6,N/A,,Overcast,250,2012-11-12 13:15:00
8:35 AM,37.0,32.0,82,29.90,10.0,WSW,17.3,-,N/A,,Overcast,250,2012-11-12 13:35:00
8:55 AM,36.7,31.8,83,29.89,10.0,WSW,15.0,20.7,N/A,,Overcast,240,2012-11-12 13:55:00
9:15 AM,36.1,31.1,82,29.89,10.0,WSW,18.4,27.6,N/A,,Overcast,250,2012-11-12 14:15:00
9:35 AM,36.3,31.5,83,29.88,10.0,WSW,12.7,20.7,N/A,,Overcast,240,2012-11-12 14:35:00
9:55 AM,35.8,30.6,81,29.89,10.0,WSW,12.7,20.7,N/A,,Overcast,240,2012-11-12 14:55:00
10:14 AM,35.2,29.3,79,29.90,10.0,SW,12.7,21.9,N/A,,Overcast,220,2012-11-12 15:14:00
10:35 AM,34.9,27.9,76,29.91,10.0,SW,16.1,23.0,N/A,,Overcast,220,2012-11-12 15:35:00
10:55 AM,34.9,28.6,78,29.91,10.0,WSW,11.5,19.6,N/A,,Overcast,240,2012-11-12 15:55:00
11:15 AM,35.1,28.4,77,29.91,10.0,SW,16.1,24.2,N/A,,Overcast,220,2012-11-12 16:15:00
11:35 AM,34.7,26.6,72,29.92,10.0,SW,16.1,25.3,N/A,,Overcast,230,2012-11-12 16:35:00
11:54 AM,34.2,26.6,74,29.92,10.0,SW,17.3,24.2,N/A,,Overcast,230,2012-11-12 16:54:00
12:15 PM,34.2,26.6,74,29.92,10.0,SW,13.8,24.2,N/A,,Overcast,230,2012-11-12 17:15:00
12:35 PM,34.2,26.1,72,29.92,10.0,WSW,17.3,24.2,N/A,,Overcast,240,2012-11-12 17:35:00
12:55 PM,33.8,25.7,72,29.91,10.0,WSW,16.1,23.0,N/A,,Overcast,240,2012-11-12 17:55:00
1:35 PM,32.9,24.3,71,29.92,10.0,SW,16.1,25.3,N/A,,Overcast,220,2012-11-12 18:35:00
1:55 PM,32.4,24.3,72,29.92,10.0,WSW,19.6,29.9,N/A,,Overcast,240,2012-11-12 18:55:00
2:15 PM,32.0,24.1,73,29.93,10.0,SW,13.8,21.9,N/A,,Overcast,230,2012-11-12 19:15:00
2:35 PM,32.0,24.4,74,29.92,10.0,WSW,21.9,28.8,N/A,,Overcast,240,2012-11-12 19:35:00
2:55 PM,32.0,22.6,68,29.93,10.0,SW,19.6,27.6,N/A,,Overcast,230,2012-11-12 19:55:00
3:15 PM,32.0,23.5,71,29.94,10.0,WSW,16.1,27.6,N/A,,Overcast,240,2012-11-12 20:15:00
3:55 PM,31.6,22.6,69,29.95,10.0,WSW,19.6,26.5,N/A,,Overcast,240,2012-11-12 20:55:00
4:15 PM,31.6,22.3,68,29.96,10.0,SW,20.7,28.8,N/A,,Overcast,230,2012-11-12 21:15:00
4:35 PM,31.6,22.6,69,29.97,10.0,SW,15.0,27.6,N/A,,Overcast,230,2012-11-12 21:35:00
4:48 PM,31.6,22.1,68,29.97,10.0,WSW,19.6,31.1,N/A,,Overcast,240,2012-11-12 21:48:00
5:20 PM,-9999,-9999,N/A,29.98,2.5,SW,15.0,31.1,N/A,,Unknown,230,2012-11-12 22:20:00
5:34 PM,31.1,23.5,74,29.99,5.0,SW,17.3,29.9,N/A,Snow,Light Snow,230,2012-11-12 22:34:00
5:53 PM,30.6,23.7,76,30.00,3.0,WSW,17.3,28.8,N/A,Snow,Light Snow,240,2012-11-12 22:53:00
6:08 PM,29.8,25.2,83,30.00,2.5,WSW,15.0,25.3,N/A,Snow,Light Snow,240,2012-11-12 23:08:00
6:34 PM,30.2,25.0,81,30.01,7.0,WSW,24.2,33.4,N/A,,Overcast,250,2012-11-12 23:34:00
6:54 PM,30.0,24.4,80,30.02,7.0,West,23.0,29.9,N/A,Snow,Light Snow,260,2012-11-12 23:54:00
7:14 PM,29.7,23.4,77,30.02,5.0,West,28.8,33.4,N/A,Snow,Light Snow,260,2012-11-13 00:14:00
7:35 PM,30.0,21.0,69,30.03,10.0,West,21.9,29.9,N/A,,Overcast,260,2012-11-13 00:35:00
7:55 PM,28.9,23.0,78,30.04,4.0,West,18.4,29.9,N/A,Snow,Light Snow,260,2012-11-13 00:55:00
8:14 PM,30.2,20.1,66,30.04,7.0,WSW,19.6,25.3,N/A,Snow,Light Snow,240,2012-11-13 01:14:00
8:35 PM,30.7,19.4,63,30.04,10.0,WSW,21.9,29.9,N/A,Snow,Light Snow,240,2012-11-13 01:35:00
8:55 PM,29.7,23.0,76,30.05,4.0,West,24.2,34.5,N/A,Snow,Light Snow,260,2012-11-13 01:55:00
9:14 PM,30.0,22.3,73,30.06,7.0,West,23.0,28.8,N/A,Snow,Light Snow,260,2012-11-13 02:14:00
9:34 PM,29.3,23.9,80,30.07,3.0,West,28.8,35.7,N/A,Snow,Light Snow,260,2012-11-13 02:34:00
9:55 PM,28.9,24.6,84,30.09,2.0,West,18.4,34.5,N/A,Snow,Light Snow,270,2012-11-13 02:55:00
10:15 PM,30.2,22.6,73,30.08,7.0,West,28.8,33.4,N/A,Snow,Light Snow,280,2012-11-13 03:15:00
10:34 PM,29.8,21.6,71,30.09,7.0,West,25.3,33.4,N/A,Snow,Light Snow,270,2012-11-13 03:34:00
10:55 PM,30.0,20.8,69,30.10,10.0,West,20.7,32.2,N/A,,Overcast,260,2012-11-13 03:55:00
11:14 PM,31.1,20.1,64,30.11,10.0,West,16.1,25.3,N/A,,Overcast,270,2012-11-13 04:14:00
11:34 PM,30.9,16.3,55,30.12,10.0,West,19.6,29.9,N/A,,Overcast,260,2012-11-13 04:34:00
11:54 PM,30.9,18.1,59,30.13,7.0,West,18.4,28.8,N/A,Snow,Light Snow,270,2012-11-13 04:54:00